User: anonymous   Login
Location: Muenchen
(48.1800°N, 11.5800°E)
Time: 05:05:48
(UTC+01:00)
Language:

Iridium 73 - Orbit

View from above orbital plane
View from above orbital plane
View from above satellite
View from above satellite

Ground track
Ground track

The orbit data is extracted from the following two-line orbital elements,

1 25344U 98032C   18055.60496453 +.00000109 +00000-0 +23352-4 0  9995
2 25344 086.4393 096.3094 0001773 082.2970 277.8435 14.49096746043801
Epoch (UTC): 24 February 2018 14:31:08
Eccentricity: 0.0001773
inclination: 86.4393°
perigee height: 727 km
apogee height: 730 km
right ascension of ascending node: 96.3094°
argument of perigee: 82.2970°
revolutions per day: 14.49096746
mean anomaly at epoch: 277.8435°
orbit number at epoch: 4380

The dashed part of the orbit path shows where the satellite is in the earth's shadow,  

DLR